Voltar ao catálogo

PSLV DEB

AtivoPO
NORAD 34221·DEBRIS·🇮🇳 India

Lançado Oct 22, 2001 de Satish Dhawan Space Centre

Loading…

Próximas Passagens (próximas 24 horas)

TLE

AtualizadoSource: Space-Track

Época: Sep 14, 2026, 14:38 UTC

1 34221U 01049PR  26257.61001175  .00001860  00000-0  10608-3 0  9992
2 34221  98.5080 211.9047 0039308 196.2097 163.7877 15.13694570327906

Acompanhe PSLV DEB em tempo real com AllMySat

Download on the App Store